EA4TN Weather Reports


time (UTC)temp
F
wind
direction
speed
knots
gust
knots
rain 1hr
in
rain 24hr
in
rain mn
in
humidity
%
barometer
mb
20260505235015 52 44 3.5 5.2 0.00 0.00 0.00 61 1013.1
20260505234015 52 49 2.6 6.1 0.00 0.00 0.00 61 1013.0
20260505233035 52 39 2.6 5.2 0.00 0.00 0.00 61 1013.0
20260505232015 53 35 2.6 5.2 0.00 0.00 0.00 60 1013.0
20260505231015 53 47 3.5 5.2 0.00 0.00 0.00 58 1012.9
20260505230015 53 46 3.5 7.8 0.00 0.00 0.00 56 1012.9
20260505225015 54 47 4.3 6.1 0.00 0.00 0.00 54 1013.0
20260505224015 55 72 1.7 5.2 0.00 0.00 0.00 53 1013.0
20260505223015 55 27 1.7 2.6 0.00 0.00 0.00 51 1012.7
20260505222035 56 27 0.9 1.7 0.00 0.00 0.00 49 1012.9
20260505221035 56 27 0.9 1.7 0.00 0.00 0.00 48 1012.8
20260505220015 56 351 0.9 2.6 0.00 0.00 0.00 47 1012.7
20260505215035 57 329 0.9 2.6 0.00 0.00 0.00 46 1012.8
20260505214015 57 19 0.0 1.7 0.00 0.00 0.00 45 1012.9
20260505213015 57 332 0.9 2.6 0.00 0.00 0.00 44 1013.0
20260505212015 58 308 1.7 5.2 0.00 0.00 0.00 44 1013.1
20260505211015 58 315 0.9 3.5 0.00 0.00 0.00 43 1013.0
20260505210015 58 325 1.7 2.6 0.00 0.00 0.00 43 1013.0
20260505205015 59 337 0.9 2.6 0.00 0.00 0.00 42 1013.0
20260505204015 59 343 0.9 5.2 0.00 0.00 0.00 40 1012.8
20260505203015 60 332 1.7 4.3 0.00 0.00 0.00 39 1012.7
20260505202015 60 1 1.7 5.2 0.00 0.00 0.00 39 1012.6
20260505201035 60 357 1.7 4.3 0.00 0.00 0.00 39 1012.4
20260505200015 60 351 2.6 7.8 0.00 0.00 0.00 39 1012.3
20260505195035 60 353 2.6 6.1 0.00 0.00 0.00 37 1012.2
20260505194015 61 350 2.6 7.0 0.00 0.00 0.00 37 1012.0
20260505193015 61 337 2.6 5.2 0.00 0.00 0.00 37 1011.9
20260505192016 61 5 3.5 7.8 0.00 0.00 0.00 37 1011.7
20260505191015 62 341 2.6 7.0 0.00 0.00 0.00 37 1011.7
20260505190015 63 337 3.5 7.0 0.00 0.00 0.00 36 1011.6
20260505185015 63 321 3.5 7.8 0.00 0.00 0.00 35 1011.6
20260505184055 64 321 2.6 9.6 0.00 0.00 0.00 34 1011.4
20260505183036 64 334 3.5 7.0 0.00 0.00 0.00 34 1011.2
20260505182015 65 318 3.5 7.8 0.00 0.00 0.00 34 1011.2
20260505181015 65 349 4.3 10.4 0.00 0.00 0.00 34 1011.2
20260505180016 65 329 2.6 7.8 0.00 0.00 0.00 35 1011.1
20260505175015 64 287 2.6 8.7 0.00 0.00 0.00 35 1011.0
20260505174015 63 313 3.5 7.8 0.00 0.00 0.00 36 1011.0
20260505173016 63 322 3.5 9.6 0.00 0.00 0.00 36 1011.0
20260505172016 64 332 3.5 7.8 0.00 0.00 0.00 36 1011.0
20260505171015 64 303 4.3 9.6 0.00 0.00 0.00 35 1011.2
20260505170015 65 295 4.3 11.3 0.00 0.00 0.00 34 1011.2
20260505165015 65 312 4.3 9.6 0.00 0.00 0.00 34 1011.2
20260505164016 65 329 3.5 8.7 0.00 0.00 0.00 33 1011.1
20260505163015 65 310 3.5 7.8 0.00 0.00 0.00 32 1011.0
20260505162016 66 307 7.0 12.2 0.00 0.00 0.00 31 1011.1
20260505161055 66 349 4.3 11.3 0.00 0.00 0.00 32 1011.1
20260505153016 67 277 4.3 11.3 0.00 0.00 0.00 31 1011.3
20260505152016 67 311 2.6 8.7 0.00 0.00 0.00 29 1011.3
20260505151016 66 272 4.3 11.3 0.00 0.00 0.00 31 1011.4
20260505125015 64 252 4.3 8.7 0.00 0.00 0.00 36 1012.3
20260505124016 64 263 5.2 10.4 0.00 0.00 0.00 38 1012.3
20260505123036 63 292 3.5 10.4 0.00 0.00 0.00 40 1012.3
20260505122016 63 276 4.3 10.4 0.00 0.00 0.00 41 1012.4
20260505121016 62 268 5.2 11.3 0.00 0.00 0.00 41 1012.5
20260505120016 63 307 4.3 11.3 0.00 0.00 0.00 42 1012.6
20260505115015 64 275 6.1 10.4 0.00 0.00 0.00 42 1012.6
20260505114036 62 271 4.3 10.4 0.00 0.00 0.00 45 1012.7
20260505112015 62 228 2.6 7.0 0.00 0.00 0.00 44 1012.8
20260505111016 61 275 3.5 8.7 0.00 0.00 0.00 46 1012.9
20260505102016 62 265 4.3 8.7 0.00 0.00 0.00 43 1013.1
20260505101016 62 270 4.3 8.7 0.00 0.00 0.00 43 1013.3
20260505100015 61 314 2.6 7.0 0.00 0.00 0.00 45 1013.2
20260505095036 60 303 2.6 6.1 0.00 0.00 0.00 46 1013.1
20260505094016 60 289 2.6 7.0 0.00 0.00 0.00 46 1013.2
20260505093016 60 276 3.5 7.0 0.00 0.00 0.00 47 1013.2
20260505092016 60 254 1.7 4.3 0.00 0.00 0.00 50 1013.2
20260505091016 60 255 0.9 5.2 0.00 0.00 0.00 50 1013.2
20260505090036 60 137 2.6 7.0 0.00 0.00 0.00 52 1013.2
20260505085016 59 187 2.6 5.2 0.00 0.00 0.00 57 1013.3
20260505084036 59 203 1.7 4.3 0.00 0.00 0.00 56 1013.3
20260505083016 58 276 1.7 2.6 0.00 0.00 0.00 59 1013.3
20260505082016 57 249 0.9 5.2 0.00 0.00 0.00 62 1013.3
20260505081015 57 229 2.6 5.2 0.00 0.00 0.00 63 1013.3
20260505080036 56 270 1.7 5.2 0.00 0.00 0.00 63 1013.3
20260505075016 56 249 1.7 3.5 0.00 0.00 0.00 65 1013.3
20260505074016 55 110 2.6 4.3 0.00 0.00 0.00 68 1013.3
20260505073036 54 269 0.9 3.5 0.00 0.00 0.00 69 1013.4
20260505072036 54 250 1.7 3.5 0.00 0.00 0.00 67 1013.3
20260505071036 54 258 1.7 2.6 0.00 0.00 0.00 66 1013.4
20260505070016 54 259 0.9 2.6 0.00 0.00 0.00 68 1013.3
20260505065016 54 213 1.7 2.6 0.00 0.00 0.00 66 1013.4
20260505064016 53 230 0.9 3.5 0.00 0.00 0.00 69 1013.3
20260505063036 52 242 0.9 2.6 0.00 0.00 0.00 71 1013.2
20260505062016 50 242 0.9 1.7 0.00 0.00 0.00 74 1013.0
20260505061016 50 242 0.0 2.6 0.00 0.00 0.00 75 1013.1
20260505060016 49 242 0.9 2.6 0.00 0.00 0.00 77 1012.9
20260505055016 49 0.0 0.0 0.00 0.00 0.00 78 1012.7
20260505054016 49 0.0 0.0 0.00 0.00 0.00 78 1012.8
20260505053016 49 0.0 1.7 0.00 0.00 0.00 78 1012.7
20260505052016 49 242 0.0 2.6 0.00 0.00 0.00 77 1012.7
20260505051016 49 242 0.9 2.6 0.00 0.00 0.00 77 1012.6
20260505041016 50 243 0.0 1.7 0.00 0.00 0.00 72 1012.8
20260505040016 50 243 0.9 2.6 0.00 0.00 0.00 72 1012.8
20260505035016 51 243 0.9 1.7 0.00 0.00 0.00 71 1012.7
20260505034016 51 0.0 0.0 0.00 0.00 0.00 71 1012.7
20260505033036 51 243 0.9 2.6 0.00 0.00 0.00 70 1012.7
20260505032016 52 243 1.7 2.6 0.00 0.00 0.00 69 1012.9
20260505031016 52 237 1.7 3.5 0.00 0.00 0.00 67 1012.9
20260505030016 53 256 1.7 3.5 0.00 0.00 0.00 64 1012.9
20260505025016 53 0.0 0.0 0.00 0.00 0.00 63 1013.0
20260505024016 53 316 0.0 1.7 0.00 0.00 0.00 63 1013.0
20260505023056 53 256 0.9 2.6 0.00 0.00 0.00 63 1013.1
20260505022016 53 280 0.9 2.6 0.00 0.00 0.00 62 1013.1
20260505021016 53 0.0 2.6 0.00 0.00 0.00 62 1013.1
20260505020016 54 278 0.9 1.7 0.00 0.00 0.00 61 1013.2
20260505015016 54 337 1.7 3.5 0.00 0.00 0.00 60 1013.2
20260505014016 54 340 0.9 4.3 0.00 0.00 0.00 60 1013.3
20260505013016 54 319 0.9 3.5 0.00 0.00 0.00 60 1013.3
20260505012016 55 23 0.9 6.1 0.00 0.00 0.00 59 1013.3
20260505011016 55 302 1.7 5.2 0.00 0.00 0.00 60 1013.2
20260505010016 54 310 2.6 5.2 0.00 0.00 0.00 61 1013.3
20260505005016 53 301 0.9 2.6 0.00 0.00 0.00 65 1013.2
20260505004016 54 218 0.9 2.6 0.00 0.00 0.00 65 1013.4
20260505003016 54 250 0.9 3.5 0.00 0.00 0.00 64 1013.3
20260505002016 54 293 0.0 1.7 0.00 0.00 0.00 64 1013.4
20260505001016 54 293 0.9 1.7 0.00 0.00 0.00 64 1013.3
20260505000016 54 279 0.9 3.5 0.00 0.00 0.00 65 1013.3